Date,TemperatureHighF,TemperatureAvgF,TemperatureLowF,DewpointHighF,DewpointAvgF,DewpointLowF,HumidityHigh,HumidityAvg,HumidityLow,PressureMaxIn,PressureMinIn,WindSpeedMaxMPH,WindSpeedAvgMPH,GustSpeedMaxMPH,PrecipitationSumIn
2013-1-1,33,30,23,33,30,23,100,100,100,30.02,29.89,9,3,13,0.04
2013-1-2,29,19,10,27,18,10,100,95,66,30.11,30.01,6,1,7,0.01
2013-1-3,39,22,7,32,20,7,100,96,68,30.20,30.03,10,2,12,0.02
2013-1-4,36,28,20,31,25,20,100,89,64,30.26,30.16,11,2,16,0.02
2013-1-5,42,30,16,38,27,16,100,90,60,30.19,30.01,9,1,12,0.15
2013-1-6,37,32,23,37,31,23,100,93,81,30.22,29.91,12,3,19,0.06
2013-1-7,40,27,14,33,24,14,100,91,64,30.32,30.07,8,2,14,0.03
2013-1-8,53,34,20,39,29,20,100,85,47,30.16,30.05,9,1,10,0.02
2013-1-9,56,43,33,52,41,33,100,92,61,30.36,30.06,7,1,10,0.12
2013-1-10,50,40,30,50,39,30,100,96,72,30.35,29.91,9,3,13,0.23
2013-1-11,63,56,50,58,54,50,100,94,70,29.91,29.77,13,3,16,0.72
2013-1-12,66,60,54,66,59,52,100,98,85,29.93,29.64,12,3,17,0.98
2013-1-13,66,41,25,66,41,25,100,100,100,30.08,29.57,12,4,23,1.62
2013-1-14,28,23,19,27,23,19,100,99,88,30.28,30.09,9,2,13,0.00
2013-1-15,21,20,19,21,20,19,100,100,100,30.20,30.18,1,0,3,0.00
2013-1-16,31,30,29,29,27,25,95,89,78,29.95,29.90,6,2,8,0.00
2013-1-17,47,34,23,37,29,22,100,84,54,30.27,29.94,14,3,18,0.00
2013-1-18,46,31,16,32,23,16,100,76,39,30.37,30.08,9,2,15,0.00
2013-1-19,58,47,40,39,30,23,74,52,39,30.08,29.84,10,5,24,0.00
2013-1-20,47,35,25,40,18,9,81,51,27,30.14,29.88,12,5,22,0.00
2013-1-21,25,19,11,20,10,1,98,70,42,30.46,30.00,16,5,20,0.00
2013-1-22,20,12,5,6,3,-1,94,67,44,30.38,30.24,14,4,15,0.00
2013-1-23,37,22,8,22,12,2,100,69,36,30.36,30.10,16,2,16,0.00
2013-1-24,28,22,14,20,9,-1,95,59,32,30.58,30.15,20,5,20,0.00
2013-1-25,29,23,19,26,17,4,100,81,46,30.35,30.06,13,2,15,0.00
2013-1-26,43,28,16,27,20,16,100,77,37,30.39,30.12,13,2,13,0.00
2013-1-27,43,31,22,43,28,19,100,88,61,30.39,30.12,14,3,15,0.28
2013-1-28,58,53,42,58,52,42,100,98,84,30.15,30.08,17,4,17,0.24
2013-1-29,67,61,56,64,60,56,100,98,90,30.10,29.57,24,5,25,0.01
2013-1-30,68,48,28,66,48,25,100,98,85,29.73,29.39,22,6,25,0.98
2013-1-31,33,25,12,28,21,9,100,84,62,30.08,29.72,25,6,25,0.89